TimeEDT,TemperatureF,Dew PointF,Humidity,Sea Level PressureIn,VisibilityMPH,Wind Direction,Wind SpeedMPH,Gust SpeedMPH,PrecipitationIn,Events,Conditions,WindDirDegrees,DateUTC
12:55 AM,44.2,40.6,87,29.63,10.0,SW,4.6,-,N/A,,Clear,230,2012-11-01 04:55:00
1:55 AM,43.7,37.8,80,29.64,10.0,WSW,6.9,-,N/A,,Clear,250,2012-11-01 05:55:00
2:55 AM,43.3,36.5,77,29.64,10.0,WSW,5.8,-,N/A,,Clear,250,2012-11-01 06:55:00
3:55 AM,41.5,36.3,82,29.64,10.0,SSW,5.8,-,N/A,,Clear,210,2012-11-01 07:55:00
4:55 AM,41.4,35.6,80,29.64,10.0,SW,4.6,-,N/A,,Clear,220,2012-11-01 08:55:00
5:55 AM,40.3,36.0,85,29.64,10.0,SSW,5.8,-,N/A,,Clear,200,2012-11-01 09:55:00
6:55 AM,40.8,37.0,86,29.65,10.0,SSW,6.9,-,N/A,,Mostly Cloudy,200,2012-11-01 10:55:00
7:55 AM,42.1,36.7,81,29.66,10.0,SSW,4.6,-,N/A,,Overcast,200,2012-11-01 11:55:00
8:55 AM,45.1,38.1,76,29.67,10.0,WSW,5.8,-,N/A,,Clear,240,2012-11-01 12:55:00
9:55 AM,48.6,37.9,67,29.68,10.0,West,10.4,-,N/A,,Overcast,260,2012-11-01 13:55:00
10:55 AM,49.5,38.3,65,29.68,1.2,West,8.1,-,N/A,,Haze,260,2012-11-01 14:55:00
10:56 AM,50.0,37.4,62,29.68,0.8,West,10.4,-,N/A,,Haze,270,2012-11-01 14:56:00
10:57 AM,50.0,39.2,66,29.68,0.5,West,9.2,-,N/A,,Haze,280,2012-11-01 14:57:00
11:05 AM,50.0,39.2,66,29.68,0.8,West,12.7,-,N/A,,Haze,260,2012-11-01 15:05:00
11:06 AM,50.0,39.2,66,29.68,1.0,WSW,12.7,-,N/A,,Haze,250,2012-11-01 15:06:00
11:07 AM,50.0,39.2,66,29.68,1.8,WSW,12.7,-,N/A,,Haze,250,2012-11-01 15:07:00
11:08 AM,50.0,39.2,66,29.69,4.0,WSW,12.7,18.4,N/A,,Haze,250,2012-11-01 15:08:00
11:55 AM,50.9,39.4,65,29.68,10.0,WSW,10.4,19.6,N/A,,Overcast,240,2012-11-01 15:55:00
12:15 PM,50.0,39.2,66,29.68,10.0,WSW,13.8,18.4,N/A,,Overcast,240,2012-11-01 16:15:00
12:55 PM,51.3,39.7,65,29.66,10.0,WSW,9.2,-,N/A,,Overcast,250,2012-11-01 16:55:00
1:55 PM,50.7,39.6,66,29.65,10.0,WSW,10.4,-,N/A,,Overcast,250,2012-11-01 17:55:00
2:55 PM,51.3,38.7,62,29.65,10.0,West,12.7,-,N/A,,Overcast,270,2012-11-01 18:55:00
3:55 PM,51.3,37.9,60,29.65,10.0,WSW,13.8,-,N/A,,Overcast,250,2012-11-01 19:55:00
4:55 PM,50.5,38.1,62,29.65,10.0,West,10.4,-,N/A,,Overcast,260,2012-11-01 20:55:00
5:55 PM,49.3,37.8,65,29.67,10.0,West,12.7,-,N/A,,Overcast,260,2012-11-01 21:55:00
6:55 PM,49.1,37.0,63,29.68,10.0,West,10.4,-,N/A,,Overcast,270,2012-11-01 22:55:00
7:55 PM,48.7,37.2,64,29.69,10.0,WSW,8.1,-,N/A,,Overcast,250,2012-11-01 23:55:00
8:55 PM,48.4,37.8,67,29.70,10.0,WSW,10.4,-,N/A,,Overcast,250,2012-11-02 00:55:00
9:55 PM,47.5,38.7,71,29.70,10.0,WSW,6.9,-,N/A,,Overcast,240,2012-11-02 01:55:00
10:55 PM,48.0,38.3,69,29.71,10.0,WSW,8.1,-,N/A,,Overcast,240,2012-11-02 02:55:00
11:55 PM,48.2,37.4,66,29.71,10.0,WSW,8.1,-,N/A,,Overcast,250,2012-11-02 03:55:00